Location: Melbourne
(37.8170°S, 144.9670°E)
Time: 23:06:49
(UTC+11:00)

ISS - All Passes

Search period start: 12 December 2017 00:00
Search period end: 22 December 2017 00:00
Orbit: 403 x 407 km, 51.6° (Epoch: 12 December)

Date Brightness Start Highest point End Pass type
(mag) Time Alt. Az. Time Alt. Az. Time Alt. Az.
12 Dec - 01:37:42 10° NNW 01:40:53 49° NE 01:44:07 10° ESE visible
12 Dec - 03:14:57 10° WSW 03:17:33 21° SSW 03:20:10 10° SSE visible
12 Dec - 08:07:11 10° SSW 08:10:15 32° SSE 08:13:18 10° E daylight
12 Dec - 09:43:52 10° WSW 09:46:38 24° NW 09:49:23 10° N daylight
13 Dec - 00:46:06 10° N 00:48:50 24° NE 00:51:34 10° ESE visible
13 Dec - 02:22:10 10° W 02:25:12 33° SSW 02:28:16 10° SE visible
13 Dec - 07:15:17 10° SSW 07:17:53 21° SSE 07:20:28 10° ESE daylight
13 Dec - 08:51:19 10° WSW 08:54:33 50° NW 08:57:46 10° NNE daylight
13 Dec - 23:55:26 10° NNE 23:56:49 12° NE 23:58:12 10° ENE night (unlit)
14 Dec - 01:29:38 10° WNW 01:32:55 60° SW 01:36:13 10° SE visible
14 Dec - 03:08:20 10° SW 03:09:57 13° SSW 03:11:36 10° S visible
14 Dec - 06:23:29 10° SSW 06:25:25 14° SSE 06:27:21 10° ESE daylight
14 Dec - 07:59:02 10° SW 08:02:23 78° SE 08:05:42 10° NE daylight
15 Dec - 00:37:26 10° NW 00:40:42 65° NE 00:44:00 10° SE visible
15 Dec - 02:15:05 10° WSW 02:17:28 18° SSW 02:19:52 10° SSE visible
15 Dec - 05:31:59 10° S 05:32:53 11° SSE 05:33:48 10° SSE daylight
15 Dec - 07:06:56 10° SW 07:10:07 39° SE 07:13:16 10° ENE daylight
15 Dec - 08:43:56 10° W 08:46:23 19° NW 08:48:49 10° N daylight
15 Dec - 23:45:37 10° NNW 23:48:34 31° NE 23:51:32 10° ESE night (unlit)
16 Dec - 01:22:08 10° W 01:25:02 27° SSW 01:27:58 10° SSE visible
16 Dec - 06:14:57 10° SSW 06:17:44 24° SSE 06:20:31 10° E daylight
16 Dec - 07:51:10 10° WSW 07:54:19 38° NW 07:57:23 10° NNE daylight
16 Dec - 22:54:27 10° NNE 22:56:30 16° NE 22:58:33 10° E night (unlit)
17 Dec - 00:29:28 10° WNW 00:32:41 47° SW 00:35:56 10° SE visible
17 Dec - 02:08:33 10° SW 02:09:50 12° SSW 02:11:07 10° S visible
17 Dec - 05:23:04 10° SSW 05:25:16 16° SSE 05:27:28 10° ESE visible
17 Dec - 06:58:47 10° SW 07:02:07 82° NW 07:05:26 10° NE daylight
17 Dec - 23:37:06 10° NW 23:40:24 85° NE 23:43:44 10° SE visible
18 Dec - 01:15:07 10° WSW 01:17:16 16° SSW 01:19:26 10° SSE visible
18 Dec - 04:31:22 10° S 04:32:43 12° SSE 04:34:03 10° SE visible
18 Dec - 06:06:35 10° SW 06:09:51 49° SE 06:13:05 10° ENE daylight
18 Dec - 07:44:02 10° W 07:46:01 15° NW 07:48:00 10° NNW daylight
18 Dec - 22:45:05 10° NNW 22:48:12 39° NE 22:51:20 10° ESE visible
19 Dec - 00:22:02 10° W 00:24:47 23° SSW 00:27:32 10° SSE visible
19 Dec - 05:14:31 10° SSW 05:17:28 28° SSE 05:20:24 10° E visible
19 Dec - 06:50:58 10° WSW 06:53:56 29° NW 06:56:51 10° NNE daylight
19 Dec - 21:53:35 10° N 21:56:04 20° NE 21:58:33 10° E visible
19 Dec - 23:29:13 10° WNW 23:32:21 38° SW 23:35:31 10° SE visible
20 Dec - 01:08:46 10° SSW 01:09:35 11° SSW 01:10:25 10° S visible
20 Dec - 04:22:33 10° SSW 04:25:00 18° SSE 04:27:25 10° ESE visible
20 Dec - 05:58:26 10° SW 06:01:44 63° NW 06:05:00 10° NE daylight
20 Dec - 22:36:42 10° NW 22:40:00 75° SW 22:43:21 10° SE visible
21 Dec - 00:15:05 10° SW 00:16:58 14° SSW 00:18:52 10° SSE visible
21 Dec - 03:30:45 10° S 03:32:25 13° SSE 03:34:06 10° SE visible
21 Dec - 05:06:09 10° SW 05:09:27 63° SE 05:12:44 10° ENE visible
21 Dec - 06:44:17 10° WNW 06:45:31 12° NW 06:46:47 10° NNW daylight
21 Dec - 21:44:31 10° NNW 21:47:44 52° NE 21:50:59 10° ESE visible
21 Dec - 23:21:51 10° WSW 23:24:25 20° SSW 23:26:59 10° SSE visible
